User: anonymous   Login
Location: Unspecified
(0.0000°N, 0.0000°E)
Time: 00:08:38
(UTC+00:00)
Language:

CANX 3A (UNIBRITE) - Orbit

View from above orbital plane
View from above orbital plane
View from above satellite
View from above satellite

Ground track
Ground track

The orbit data is extracted from the following two-line orbital elements,

1 39092U 13009G   14324.76939070  .00000302  00000-0  12262-3 0  5370
2 39092 098.6108 158.8578 0009299 197.9945 162.0912 14.34642437 90774
Epoch (UTC): 20 November 2014 18:27:55
Eccentricity: 0.0009299
inclination: 98.6108°
perigee height: 769 km
apogee height: 783 km
right ascension of ascending node: 158.8578°
argument of perigee: 197.9945°
revolutions per day: 14.34642437
mean anomaly at epoch: 162.0912°
orbit number at epoch: 9077

The dashed part of the orbit path shows where the satellite is in the earth's shadow,  

DLR